Location: LDNL
(36.4545°S, 141.6685°E)
Time: 23:21:14
(UTC+11:00)

ISS - Pass Details

Date: 16 December 2021
Orbit: 413 x 422 km, 51.6° (Epoch: 22 January)

Event Time Altitude Azimuth Distance (km) Brightness Sun altitude
Rises 02:26:19 0° 216° (SW) 2,383 0.6 -28.7°
Reaches altitude 10° 02:29:59 10° 175° (S) 1,515 0.0 -28.5°
Maximum altitude 02:30:49 11° 161° (SSE) 1,473 -0.1 -28.5°
Drops below altitude 10° 02:31:40 10° 146° (SE) 1,513 -0.1 -28.4°
Sets 02:35:18 0° 105° (ESE) 2,373 0.5 -28.2°
